Location: Bjelajci
(45.0103°N, 16.1758°E)
Time: 09:29:33
(UTC+00:00)

AQUA - Pass Details

Date: 14 July 2020
Orbit: 701 x 703 km, 98.2° (Epoch: 07 August)

Event Time Altitude Azimuth Distance (km) Brightness Sun altitude
Rises 01:26:39 0° 8° (N) 3,103 8.3 -15.6°
Reaches altitude 10° 01:28:58 10° 2° (N) 2,180 7.2 -15.3°
Maximum altitude 01:33:33 47° 290° (WNW) 925 4.3 -14.9°
Enters shadow 01:36:14 23° 227° (SW) 1,482 4.9 -14.6°
